Regional Weather Roundup
Issued by NWS

Home | Current Version | Previous Version | Text Only | Print | Product List | Glossary On
Versions: 1 2 3 4 5 6 7 8 9 10 11 12 13 14 15 16 17 18 19 20 21 22 23 24 25 26 27 28
000
ASUS45 KBOU 050907
RWRCO

WEATHER ROUNDUP FOR COLORADO
NATIONAL WEATHER SERVICE DENVER/BOULDER CO
300 AM MDT THU MAY 05 2016

NOTE: "FAIR" INDICATES FEW OR NO CLOUDS BELOW 12000 FEET WITH NO
SIGNIFICANT WEATHER AND/OR OBSTRUCTIONS TO VISIBILITY.

COZ001>005-013-030-031-051000-
...NORTHWEST COLORADO...

CITY           SKY/WX    TMP DP  RH WIND       PRES   REMARKS
CRAIG          FAIR      36  33  89 CALM      30.18F
HAYDEN         FAIR      45  28  53 E13       30.19F
MEEKER         FAIR      44  29  55 E6        30.19F
MOUNT WERNER   NOT AVBL
STEAMBOAT SPGS FAIR      40  28  62 CALM      30.23S
WALDEN         FAIR      34  23  64 SE7       30.29F WCI  28
$$

COZ006>008-011-051000-
...WEST CENTRAL VALLEYS...

CITY           SKY/WX    TMP DP  RH WIND       PRES   REMARKS
GRAND JUNCTION FAIR      54  33  45 E14       30.08F
MONTROSE       FAIR      52  28  39 E7        30.18F
EAGLE          FAIR      43  28  56 E3        30.26S
RIFLE          FAIR      46  33  60 SE3       30.17S
DELTA          NOT AVBL
NUCLA          NOT AVBL
$$

COZ017>023-064>068-051000-
...SOUTHWEST COLORADO...

CITY           SKY/WX    TMP DP  RH WIND       PRES   REMARKS
DURANGO        FAIR      42  29  59 CALM      30.24S
CORTEZ         FAIR      41  30  65 CALM      30.17F
PAGOSA SPRINGS FAIR      40  25  56 CALM      30.31S
TELLURIDE      FAIR      43  23  45 SE9       30.37F
WOLF CREEK PAS FAIR      34  19  55 SW14      30.52F WCI  24
$$

COZ009-010-012-014-032>034-037-058>063-051000-
...CENTRAL COLORADO...

CITY           SKY/WX    TMP DP  RH WIND       PRES   REMARKS
ASPEN          FAIR      41  25  53 S8        30.28S
BUENA VISTA    FAIR      40  26  56 NW9       30.31F
COPPER MTN     NOT AVBL
BERTHOUD PASS  FAIR      32  23  69 NW15      30.49F WCI  22
COTTONWOOD PAS FAIR      46  19  34 CALM      30.39S
GUNNISON       FAIR      36  27  69 SE3       30.34S
KREMMLING      FAIR      34  30  86 CALM      30.30R
LEADVILLE      FAIR      30  19  63 CALM      30.38F
MONARCH PASS   FAIR      36  23  60 W18       30.59F
SALIDA         NOT AVBL
SUNLIGHT       FAIR      39  25  56 CALM      30.44F
WILKERSON PASS FAIR      37  23  56 W5        30.47S
$$

COZ069>075-051000-
...SAN LUIS VALLEY/SANGRE DE CRISTO MOUNTAINS...

CITY           SKY/WX    TMP DP  RH WIND       PRES   REMARKS
ALAMOSA        FAIR      37  31  78 E8        30.28S
LA VETA PASS   FAIR      39  19  45 S12G17    30.39S
SAGUACHE       FAIR      41  30  65 N13       30.29F
$$

COZ035-036-038>040-051000-
...NORTHERN COLORADO FRONT RANGE...

CITY           SKY/WX    TMP DP  RH WIND       PRES   REMARKS
DENVER INTL AP FAIR      48  34  58 S13       30.12F
DMNS CITY PARK   N/A     53  32  45 SE8G14    30.12F
AURORA         FAIR      49  34  56 S7        30.14F
FRONT RANGE AP NOT AVBL
ERIE MUNI ARPT FAIR      42  38  85 S3        30.11F
BOULDER MUN AP FAIR      54  32  43 SW3       30.11F
CENTENNIAL     FAIR      53  31  42 S13       30.14F
BROOMFIELD     FAIR      52  34  50 W6        30.13F
FORT COLLINS   FAIR      46  39  76 N8        30.12F
LONGMONT       FAIR      50  37  62 SW6       30.12F
$$

COZ041-046-047-076>085-087-088-051000-
...PIKES PEAK/PALMER DIVIDE AND SOUTHERN FOOTHILLS...

CITY           SKY/WX    TMP DP  RH WIND       PRES   REMARKS
COLO. SPRINGS  FAIR      47  31  53 NE6       30.20F
A. F. ACADEMY  FAIR      39  32  75 N9        30.21F
SCHRIEVER AFB  NOT AVBL
ELLICOTT       FAIR     N/A N/A N/A NE3       30.18F
FALCON         NOT AVBL
FORT CARSON    FAIR      47  33  58 N10       30.17F
LIMON          FAIR      37  36  96 N5        30.17F
MONUMENT HILL  FAIR      45  32  61 S10       30.23F
TRINIDAD       FAIR      52  29  41 W5        30.15S
$$

COZ042>045-048>051-090-091-051000-
...NORTHEAST COLORADO...

CITY           SKY/WX    TMP DP  RH WIND       PRES   REMARKS
GREELEY ARPT   FAIR      46  39  76 NE8       30.11F
AKRON          FAIR      51  40  65 S12       30.11F
BURLINGTON     FAIR      50  40  68 S13       30.12F
WRAY           NOT AVBL
STERLING       FAIR      45  41  87 N3        30.09F
HOLYOKE        NOT AVBL
FORT MORGAN    FAIR      50  39  66 SW5       30.12F
$$

COZ086-089-092>099-051000-
...SOUTHEAST COLORADO...

CITY           SKY/WX    TMP DP  RH WIND       PRES   REMARKS
PUEBLO         FAIR      52  37  56 N8        30.12S
LA JUNTA       FAIR      50  41  71 E8        30.09F
LAMAR          FAIR      46  42  86 E8        30.09F
SPRINGFIELD      N/A     45  39  79 SW6       30.13F
$$




USA.gov is the U.S. government's official web portal to all federal, state and local government web resources and services.